QPF
0.09 0.11 0.15 0.17 0.15 0.11 0.09 0.07 0.06 0.08 0.08 0.08 0.07 0.05 0.06 0.07 0.06 0.05 0.05 0.03 0.02 0.02 0.03 0.05 0.06 0.05 0.05 0.05 0.05 0.04 0.04 0.05 0.07 0.08 0.10 0.09 0.09 0.07 0.05 0.06 0.07 0.05 0.04
0.08 0.11 0.13 0.14 0.11 0.09 0.07 0.07 0.05 0.05 0.06 0.06 0.05 0.05 0.05 0.04 0.05 0.05 0.05 0.04 0.02 0.02 0.02 0.02 0.04 0.05 0.04 0.04 0.03 0.03 0.03 0.04 0.05 0.06 0.06 0.06 0.06 0.05 0.04 0.04 0.05 0.05 0.05
0.07 0.09 0.10 0.10 0.10 0.08 0.05 0.04 0.03 0.04 0.04 0.05 0.05 0.05 0.04 0.04 0.04 0.04 0.05 0.05 0.04 0.02 0.02 0.02 0.02 0.03 0.04 0.05 0.03 0.03 0.03 0.04 0.04 0.04 0.04 0.04 0.05 0.04 0.03 0.03 0.03 0.03 0.03
0.04 0.05 0.06 0.06 0.07 0.04 0.03 0.02 0.02 0.03 0.04 0.05 0.05 0.04 0.04 0.03 0.03 0.04 0.05 0.06 0.05 0.04 0.03 0.03 0.02 0.03 0.04 0.05 0.05 0.04 0.03 0.04 0.05 0.04 0.04 0.05 0.05 0.03 0.02 0.02 0.02 0.03 0.03
0.03 0.03 0.03 0.03 0.04 0.03 0.03 0.02 0.03 0.03 0.03 0.04 0.04 0.04 0.04 0.03 0.03 0.04 0.04 0.04 0.04 0.05 0.05 0.04 0.04 0.04 0.05 0.05 0.05 0.06 0.05 0.04 0.05 0.04 0.03 0.04 0.05 0.04 0.04 0.04 0.03 0.04 0.04
0.05 0.05 0.04 0.04 0.04 0.04 0.04 0.03 0.04 0.05 0.04 0.04 0.04 0.04 0.04 0.03 0.04 0.03 0.03 0.02 0.02 0.03 0.04 0.06 0.06 0.04 0.05 0.06 0.06 0.04 0.04 0.04 0.03 0.03 0.03 0.04 0.04 0.04 0.04 0.04 0.04 0.05 0.06
0.05 0.06 0.05 0.05 0.04 0.04 0.05 0.05 0.04 0.05 0.04 0.05 0.05 0.03 0.02 0.03 0.05 0.04 0.03 0.04 0.03 0.04 0.05 0.05 0.07 0.06 0.05 0.06 0.07 0.05 0.03 0.04 0.04 0.03 0.04 0.03 0.03 0.03 0.03 0.02 0.03 0.03 0.03
0.05 0.05 0.05 0.05 0.04 0.04 0.05 0.06 0.05 0.05 0.05 0.05 0.05 0.05 0.05 0.05 0.04 0.02 0.03 0.04 0.03 0.03 0.04 0.04 0.04 0.06 0.05 0.05 0.05 0.05 0.04 0.05 0.04 0.03 0.03 0.03 0.03 0.03 0.03 0.03 0.04 0.04 0.03
0.05 0.05 0.05 0.04 0.04 0.04 0.05 0.06 0.06 0.06 0.06 0.06 0.06 0.06 0.06 0.06 0.05 0.04 0.03 0.02 0.02 0.02 0.03 0.04 0.03 0.04 0.04 0.03 0.02 0.02 0.02 0.04 0.05 0.04 0.03 0.03 0.02 0.02 0.03 0.03 0.03 0.03 0.03
0.06 0.06 0.06 0.06 0.04 0.05 0.06 0.06 0.08 0.07 0.08 0.08 0.08 0.07 0.07 0.05 0.06 0.05 0.03 0.02 0.02 0.02 0.02 0.02 0.02 0.02 0.02 0.03 0.02 0.01 0.01 0.02 0.04 0.03 0.03 0.02 0.02 0.02 0.02 0.02 0.03 0.04 0.04
0.05 0.04 0.05 0.05 0.06 0.07 0.08 0.08 0.10 0.09 0.09 0.09 0.09 0.08 0.06 0.06 0.06 0.05 0.04 0.04 0.03 0.03 0.03 0.02 0.03 0.03 0.02 0.03 0.03 0.02 0.03 0.02 0.02 0.03 0.03 0.03 0.02 0.01 0.02 0.03 0.04 0.04 0.05
0.04 0.05 0.05 0.05 0.04 0.05 0.05 0.06 0.07 0.07 0.09 0.09 0.08 0.06 0.05 0.05 0.05 0.06 0.05 0.05 0.04 0.04 0.04 0.03 0.04 0.05 0.05 0.05 0.04 0.05 0.06 0.02 0.01 0.02 0.02 0.02 0.02 0.01 0.01 0.01 0.01 0.02 0.04
0.04 0.05 0.05 0.04 0.03 0.03 0.03 0.05 0.05 0.05 0.05 0.05 0.05 0.05 0.05 0.05 0.05 0.06 0.06 0.05 0.04 0.05 0.06 0.06 0.06 0.05 0.04 0.04 0.07 0.05 0.04 0.02 0.02 0.02 0.02 0.01 0.01 0.01 0.01 0.01 0.01 0.01 0.03
0.05 0.06 0.07 0.05 0.04 0.03 0.03 0.05 0.04 0.04 0.05 0.04 0.03 0.05 0.05 0.05 0.05 0.04 0.05 0.05 0.04 0.05 0.05 0.05 0.04 0.03 0.03 0.03 0.03 0.03 0.03 0.01 0.01 0.01 0.01 0.01 0.01 0.01 0.01 0.01 0.02 0.02 0.03
0.07 0.08 0.08 0.07 0.06 0.05 0.05 0.05 0.05 0.06 0.06 0.05 0.04 0.05 0.06 0.05 0.03 0.03 0.02 0.03 0.04 0.04 0.04 0.04 0.04 0.03 0.03 0.03 0.02 0.02 0.02 0.02 0.01 0.02 0.02 0.01 0.01 0.01 0.02 0.02 0.02 0.01 0.02
0.08 0.08 0.09 0.08 0.07 0.07 0.07 0.07 0.05 0.06 0.07 0.06 0.06 0.06 0.06 0.06 0.05 0.04 0.03 0.03 0.04 0.04 0.03 0.04 0.04 0.04 0.03 0.02 0.02 0.01 0.01 0.02 0.02 0.02 0.03 0.03 0.02 0.01 0.01 0.01 0.01 0.01 0.01
0.08 0.07 0.08 0.07 0.06 0.06 0.07 0.07 0.05 0.06 0.05 0.05 0.06 0.07 0.06 0.06 0.07 0.06 0.04 0.03 0.03 0.04 0.04 0.03 0.04 0.05 0.05 0.03 0.02 0.02 0.01 0.01 0.01 0.01 0.01 0.01 0.01 0.01 0.02 0.02 0.02 0.01 0.01
0.06 0.06 0.06 0.06 0.04 0.05 0.06 0.06 0.05 0.06 0.07 0.06 0.06 0.07 0.06 0.06 0.06 0.05 0.05 0.05 0.04 0.04 0.04 0.03 0.04 0.05 0.06 0.04 0.03 0.02 0.01 0.01 0.01 0.01 0.01 0.01 0.01 0.01 0.01 0.01 0.01 0.01 0.01
0.05 0.06 0.08 0.06 0.05 0.05 0.06 0.06 0.05 0.05 0.06 0.07 0.08 0.07 0.05 0.05 0.05 0.04 0.04 0.04 0.04 0.03 0.05 0.04 0.03 0.05 0.05 0.05 0.03 0.02 0.02 0.02 0.01 0.01 0.02 0.02 0.02 0.02 0.02 0.01 0.01 0.01 0.01
0.04 0.04 0.05 0.06 0.05 0.06 0.06 0.05 0.04 0.04 0.04 0.06 0.07 0.07 0.06 0.05 0.04 0.04 0.04 0.04 0.05 0.05 0.06 0.05 0.04 0.05 0.06 0.05 0.05 0.04 0.03 0.03 0.02 0.02 0.02 0.02 0.02 0.02 0.02 0.01 0.01 0.01 0.01
0.03 0.03 0.04 0.05 0.05 0.06 0.05 0.04 0.04 0.04 0.05 0.05 0.05 0.06 0.06 0.06 0.03 0.03 0.03 0.04 0.06 0.05 0.05 0.06 0.06 0.05 0.06 0.06 0.06 0.05 0.04 0.04 0.03 0.04 0.04 0.03 0.03 0.02 0.02 0.02 0.02 0.02 0.02
0.03 0.04 0.05 0.05 0.04 0.03 0.04 0.03 0.04 0.06 0.06 0.05 0.05 0.05 0.06 0.05 0.04 0.02 0.02 0.04 0.05 0.05 0.05 0.05 0.05 0.05 0.04 0.05 0.05 0.05 0.05 0.06 0.05 0.03 0.03 0.03 0.03 0.03 0.03 0.03 0.03 0.02 0.01
0.04 0.05 0.05 0.04 0.04 0.04 0.04 0.02 0.02 0.05 0.06 0.06 0.06 0.06 0.05 0.04 0.04 0.03 0.03 0.03 0.03 0.03 0.02 0.04 0.04 0.04 0.03 0.04 0.05 0.04 0.05 0.05 0.04 0.03 0.04 0.04 0.04 0.04 0.03 0.03 0.02 0.02 0.01
0.04 0.04 0.05 0.04 0.04 0.03 0.03 0.02 0.02 0.03 0.05 0.04 0.04 0.05 0.05 0.05 0.05 0.05 0.05 0.04 0.04 0.04 0.03 0.03 0.02 0.02 0.03 0.04 0.05 0.06 0.06 0.05 0.05 0.05 0.05 0.04 0.05 0.05 0.04 0.04 0.03 0.02 0.02
0.05 0.04 0.04 0.05 0.05 0.04 0.03 0.03 0.03 0.03 0.04 0.03 0.03 0.04 0.04 0.04 0.06 0.08 0.08 0.08 0.08 0.07 0.04 0.04 0.02 0.02 0.02 0.02 0.04 0.05 0.05 0.06 0.06 0.06 0.07 0.06 0.05 0.05 0.06 0.05 0.02 0.03 0.03
0.05 0.06 0.06 0.05 0.06 0.05 0.05 0.03 0.03 0.03 0.03 0.03 0.05 0.06 0.04 0.04 0.06 0.08 0.11 0.12 0.10 0.09 0.06 0.05 0.04 0.05 0.04 0.03 0.03 0.05 0.05 0.06 0.06 0.06 0.07 0.08 0.06 0.07 0.06 0.05 0.04 0.03 0.05
MSLP
1011.36 1011.66 1011.92 1012.12 1012.30 1012.46 1012.61 1012.78 1012.96 1013.16 1013.37 1013.60 1013.84 1014.11 1014.40 1014.72 1015.07 1015.43 1015.79 1016.12 1016.41 1016.65 1016.85 1017.02 1017.18 1017.34 1017.53 1017.75 1017.98 1018.22 1018.44 1018.63 1018.77 1018.87 1018.93 1018.98 1019.01 1019.06 1019.11 1019.18 1019.25 1019.30 1019.34
1011.35 1011.69 1011.99 1012.25 1012.48 1012.69 1012.87 1013.05 1013.23 1013.42 1013.61 1013.82 1014.05 1014.30 1014.59 1014.90 1015.23 1015.58 1015.93 1016.25 1016.54 1016.79 1017.01 1017.21 1017.40 1017.60 1017.81 1018.05 1018.29 1018.52 1018.72 1018.89 1019.01 1019.08 1019.12 1019.13 1019.14 1019.16 1019.19 1019.23 1019.28 1019.32 1019.35
1011.37 1011.71 1012.05 1012.36 1012.64 1012.90 1013.13 1013.34 1013.54 1013.74 1013.94 1014.14 1014.36 1014.60 1014.86 1015.15 1015.45 1015.76 1016.06 1016.35 1016.61 1016.85 1017.07 1017.27 1017.48 1017.70 1017.93 1018.17 1018.41 1018.63 1018.82 1018.97 1019.06 1019.11 1019.13 1019.12 1019.12 1019.12 1019.14 1019.17 1019.21 1019.26 1019.30
1011.42 1011.76 1012.10 1012.44 1012.77 1013.08 1013.36 1013.61 1013.85 1014.08 1014.30 1014.51 1014.73 1014.96 1015.21 1015.45 1015.71 1015.96 1016.20 1016.42 1016.63 1016.82 1017.01 1017.20 1017.40 1017.62 1017.85 1018.09 1018.32 1018.52 1018.69 1018.82 1018.89 1018.93 1018.93 1018.92 1018.90 1018.91 1018.93 1018.97 1019.03 1019.09 1019.15
1011.54 1011.84 1012.18 1012.53 1012.88 1013.22 1013.54 1013.84 1014.12 1014.39 1014.63 1014.87 1015.11 1015.34 1015.56 1015.78 1015.98 1016.17 1016.33 1016.48 1016.61 1016.74 1016.87 1017.02 1017.19 1017.38 1017.59 1017.81 1018.02 1018.21 1018.36 1018.46 1018.52 1018.55 1018.55 1018.54 1018.53 1018.55 1018.59 1018.65 1018.73 1018.82 1018.90
1011.72 1011.99 1012.30 1012.64 1012.99 1013.35 1013.69 1014.02 1014.33 1014.63 1014.91 1015.17 1015.43 1015.67 1015.89 1016.08 1016.24 1016.36 1016.45 1016.52 1016.57 1016.62 1016.68 1016.76 1016.88 1017.03 1017.21 1017.40 1017.58 1017.74 1017.88 1017.97 1018.02 1018.04 1018.05 1018.05 1018.07 1018.10 1018.16 1018.24 1018.33 1018.43 1018.53
1011.96 1012.19 1012.48 1012.80 1013.13 1013.48 1013.82 1014.15 1014.47 1014.78 1015.09 1015.38 1015.66 1015.91 1016.14 1016.32 1016.45 1016.53 1016.56 1016.55 1016.52 1016.49 1016.47 1016.49 1016.55 1016.65 1016.78 1016.93 1017.09 1017.23 1017.34 1017.42 1017.48 1017.51 1017.53 1017.55 1017.58 1017.64 1017.71 1017.79 1017.89 1017.98 1018.06
1012.21 1012.44 1012.70 1012.99 1013.30 1013.62 1013.94 1014.25 1014.56 1014.86 1015.17 1015.47 1015.77 1016.04 1016.28 1016.47 1016.59 1016.64 1016.63 1016.57 1016.47 1016.37 1016.29 1016.24 1016.24 1016.29 1016.37 1016.49 1016.61 1016.73 1016.83 1016.91 1016.97 1017.01 1017.05 1017.10 1017.15 1017.22 1017.29 1017.36 1017.42 1017.47 1017.50
1012.43 1012.66 1012.92 1013.20 1013.49 1013.77 1014.05 1014.32 1014.59 1014.87 1015.16 1015.46 1015.77 1016.06 1016.31 1016.52 1016.65 1016.69 1016.66 1016.56 1016.43 1016.28 1016.14 1016.04 1015.98 1015.98 1016.03 1016.11 1016.20 1016.30 1016.39 1016.47 1016.53 1016.60 1016.66 1016.73 1016.80 1016.87 1016.94 1016.98 1016.99 1016.96 1016.89
1012.54 1012.81 1013.10 1013.38 1013.65 1013.90 1014.14 1014.37 1014.59 1014.83 1015.09 1015.38 1015.68 1015.98 1016.25 1016.47 1016.62 1016.67 1016.64 1016.53 1016.37 1016.19 1016.02 1015.88 1015.79 1015.75 1015.76 1015.80 1015.87 1015.94 1016.02 1016.09 1016.17 1016.25 1016.33 1016.43 1016.52 1016.60 1016.64 1016.65 1016.58 1016.46 1016.28
1012.51 1012.84 1013.17 1013.48 1013.75 1014.00 1014.21 1014.39 1014.58 1014.77 1015.00 1015.26 1015.55 1015.85 1016.13 1016.36 1016.53 1016.60 1016.58 1016.48 1016.32 1016.12 1015.93 1015.76 1015.64 1015.57 1015.54 1015.54 1015.57 1015.62 1015.68 1015.74 1015.82 1015.91 1016.02 1016.13 1016.25 1016.34 1016.38 1016.34 1016.22 1016.00 1015.69
1012.32 1012.72 1013.11 1013.46 1013.77 1014.03 1014.23 1014.40 1014.55 1014.71 1014.90 1015.13 1015.40 1015.69 1015.98 1016.23 1016.41 1016.50 1016.50 1016.41 1016.26 1016.06 1015.86 1015.68 1015.52 1015.42 1015.35 1015.31 1015.29 1015.30 1015.32 1015.35 1015.42 1015.52 1015.64 1015.79 1015.93 1016.04 1016.09 1016.04 1015.87 1015.58 1015.17
1012.00 1012.46 1012.92 1013.34 1013.70 1013.99 1014.21 1014.38 1014.52 1014.66 1014.82 1015.03 1015.28 1015.56 1015.85 1016.10 1016.29 1016.40 1016.41 1016.34 1016.20 1016.01 1015.81 1015.61 1015.43 1015.29 1015.17 1015.07 1015.00 1014.94 1014.91 1014.90 1014.94 1015.03 1015.16 1015.33 1015.51 1015.66 1015.74 1015.71 1015.53 1015.20 1014.74
1011.59 1012.12 1012.64 1013.13 1013.55 1013.89 1014.15 1014.34 1014.49 1014.63 1014.78 1014.98 1015.21 1015.47 1015.74 1015.99 1016.19 1016.31 1016.34 1016.29 1016.16 1015.98 1015.78 1015.57 1015.37 1015.18 1015.01 1014.85 1014.70 1014.57 1014.46 1014.40 1014.39 1014.45 1014.58 1014.76 1014.97 1015.17 1015.30 1015.32 1015.18 1014.87 1014.40
1011.18 1011.74 1012.32 1012.87 1013.35 1013.76 1014.07 1014.30 1014.47 1014.62 1014.77 1014.95 1015.17 1015.41 1015.67 1015.91 1016.11 1016.24 1016.28 1016.25 1016.14 1015.98 1015.78 1015.57 1015.34 1015.12 1014.90 1014.67 1014.44 1014.22 1014.03 1013.88 1013.81 1013.82 1013.93 1014.11 1014.35 1014.59 1014.79 1014.88 1014.81 1014.57 1014.16
1010.80 1011.39 1012.01 1012.60 1013.14 1013.60 1013.96 1014.24 1014.45 1014.61 1014.77 1014.94 1015.14 1015.37 1015.61 1015.84 1016.03 1016.17 1016.23 1016.22 1016.14 1016.00 1015.82 1015.61 1015.38 1015.13 1014.86 1014.57 1014.27 1013.96 1013.68 1013.44 1013.29 1013.23 1013.29 1013.46 1013.70 1013.98 1014.23 1014.40 1014.42 1014.29 1013.98
1010.50 1011.10 1011.73 1012.35 1012.93 1013.43 1013.83 1014.15 1014.38 1014.56 1014.72 1014.89 1015.08 1015.29 1015.51 1015.73 1015.92 1016.07 1016.16 1016.18 1016.13 1016.03 1015.89 1015.70 1015.48 1015.22 1014.93 1014.60 1014.23 1013.86 1013.49 1013.16 1012.92 1012.78 1012.77 1012.88 1013.10 1013.38 1013.66 1013.89 1014.02 1013.99 1013.81
1010.26 1010.85 1011.48 1012.11 1012.70 1013.22 1013.66 1013.99 1014.25 1014.44 1014.60 1014.76 1014.94 1015.13 1015.35 1015.56 1015.76 1015.93 1016.05 1016.11 1016.11 1016.06 1015.97 1015.82 1015.63 1015.39 1015.09 1014.74 1014.35 1013.92 1013.48 1013.08 1012.74 1012.51 1012.41 1012.45 1012.60 1012.84 1013.13 1013.39 1013.58 1013.66 1013.61
1010.03 1010.60 1011.22 1011.84 1012.43 1012.96 1013.40 1013.75 1014.02 1014.22 1014.38 1014.54 1014.71 1014.90 1015.11 1015.33 1015.54 1015.74 1015.89 1016.01 1016.07 1016.08 1016.04 1015.95 1015.80 1015.60 1015.32 1014.98 1014.58 1014.13 1013.65 1013.19 1012.78 1012.45 1012.25 1012.18 1012.24 1012.41 1012.65 1012.90 1013.13 1013.28 1013.34
1009.78 1010.33 1010.92 1011.53 1012.10 1012.62 1013.06 1013.41 1013.69 1013.90 1014.07 1014.23 1014.40 1014.60 1014.81 1015.05 1015.29 1015.52 1015.72 1015.88 1016.00 1016.07 1016.09 1016.06 1015.97 1015.81 1015.58 1015.27 1014.88 1014.43 1013.94 1013.44 1012.97 1012.56 1012.26 1012.07 1012.02 1012.08 1012.23 1012.44 1012.65 1012.84 1012.98
1009.49 1010.02 1010.58 1011.15 1011.71 1012.21 1012.65 1013.01 1013.29 1013.51 1013.70 1013.88 1014.07 1014.28 1014.52 1014.78 1015.05 1015.31 1015.55 1015.76 1015.93 1016.05 1016.12 1016.14 1016.09 1015.98 1015.80 1015.53 1015.18 1014.75 1014.27 1013.75 1013.24 1012.77 1012.38 1012.08 1011.91 1011.85 1011.89 1012.01 1012.18 1012.37 1012.55
1009.20 1009.70 1010.23 1010.78 1011.30 1011.80 1012.23 1012.59 1012.90 1013.15 1013.36 1013.57 1013.80 1014.04 1014.31 1014.60 1014.90 1015.19 1015.46 1015.70 1015.90 1016.05 1016.14 1016.19 1016.17 1016.09 1015.93 1015.70 1015.39 1015.00 1014.54 1014.04 1013.51 1013.00 1012.54 1012.15 1011.87 1011.69 1011.61 1011.64 1011.74 1011.90 1012.09
1008.98 1009.45 1009.95 1010.47 1010.98 1011.46 1011.89 1012.27 1012.60 1012.89 1013.14 1013.40 1013.66 1013.94 1014.24 1014.56 1014.89 1015.20 1015.49 1015.73 1015.93 1016.08 1016.17 1016.20 1016.19 1016.11 1015.97 1015.77 1015.49 1015.13 1014.71 1014.24 1013.72 1013.20 1012.70 1012.25 1011.87 1011.59 1011.41 1011.34 1011.37 1011.47 1011.65
1008.94 1009.38 1009.86 1010.35 1010.84 1011.31 1011.75 1012.15 1012.51 1012.83 1013.13 1013.42 1013.73 1014.04 1014.37 1014.71 1015.05 1015.36 1015.64 1015.87 1016.04 1016.15 1016.21 1016.21 1016.16 1016.06 1015.91 1015.71 1015.45 1015.13 1014.75 1014.31 1013.82 1013.32 1012.81 1012.33 1011.90 1011.55 1011.29 1011.14 1011.09 1011.14 1011.28
1009.19 1009.60 1010.04 1010.51 1010.98 1011.44 1011.88 1012.29 1012.67 1013.02 1013.35 1013.68 1014.00 1014.34 1014.69 1015.03 1015.35 1015.64 1015.89 1016.07 1016.19 1016.25 1016.24 1016.18 1016.08 1015.94 1015.76 1015.55 1015.30 1015.00 1014.66 1014.26 1013.83 1013.36 1012.87 1012.40 1011.95 1011.57 1011.26 1011.04 1010.93 1010.93 1011.02
1009.76 1010.14 1010.56 1010.99 1011.44 1011.88 1012.31 1012.71 1013.09 1013.45 1013.78 1014.12 1014.44 1014.77 1015.10 1015.42 1015.71 1015.95 1016.15 1016.27 1016.33 1016.32 1016.25 1016.12 1015.96 1015.76 1015.55 1015.32 1015.07 1014.79 1014.48 1014.14 1013.75 1013.33 1012.90 1012.45 1012.02 1011.63 1011.30 1011.04 1010.88 1010.82 1010.85
Thickness
5764 5763 5761 5760 5759 5758 5757 5756 5756 5754 5754 5754 5754 5754 5753 5752 5749 5747 5745 5743 5742 5741 5740 5739 5738 5736 5735 5734 5733 5732 5731 5731 5731 5729 5728 5726 5725 5724 5722 5720 5718 5717 5715
5762 5761 5760 5758 5757 5757 5757 5756 5755 5754 5753 5752 5752 5753 5752 5751 5749 5747 5745 5743 5742 5741 5739 5738 5737 5736 5734 5733 5732 5731 5730 5730 5729 5728 5727 5725 5723 5722 5720 5719 5717 5715 5714
5760 5759 5758 5756 5756 5756 5755 5755 5753 5753 5751 5751 5750 5751 5750 5749 5748 5746 5744 5743 5741 5740 5738 5737 5736 5735 5734 5732 5731 5730 5729 5728 5727 5726 5725 5723 5721 5720 5718 5717 5715 5714 5713
5758 5757 5756 5755 5755 5755 5754 5752 5751 5749 5748 5748 5748 5749 5749 5748 5747 5746 5745 5743 5742 5740 5738 5737 5735 5733 5732 5731 5729 5728 5727 5726 5725 5724 5722 5721 5719 5718 5716 5715 5713 5712 5711
5757 5755 5754 5753 5753 5753 5751 5751 5749 5747 5745 5745 5746 5747 5747 5747 5746 5746 5744 5743 5741 5739 5738 5736 5734 5733 5731 5730 5728 5727 5726 5725 5723 5722 5720 5719 5717 5716 5714 5713 5712 5710 5709
5755 5753 5752 5751 5751 5750 5749 5747 5746 5745 5744 5743 5744 5744 5745 5745 5745 5744 5743 5742 5740 5739 5737 5735 5733 5731 5730 5728 5727 5726 5725 5723 5721 5720 5718 5717 5715 5714 5712 5711 5710 5709 5708
5753 5751 5750 5749 5748 5747 5746 5744 5743 5741 5741 5741 5738 5736 5740 5743 5741 5741 5741 5739 5738 5738 5736 5734 5732 5730 5728 5727 5725 5724 5723 5721 5720 5718 5716 5715 5714 5712 5711 5709 5708 5708 5707
5750 5749 5747 5746 5746 5745 5743 5742 5740 5737 5737 5738 5734 5729 5727 5730 5735 5740 5738 5737 5736 5736 5734 5733 5731 5730 5727 5725 5723 5722 5720 5719 5717 5715 5714 5713 5712 5711 5709 5708 5707 5706 5705
5747 5747 5745 5745 5744 5743 5740 5739 5738 5735 5732 5734 5734 5729 5722 5719 5724 5731 5733 5733 5733 5732 5732 5731 5730 5728 5726 5724 5722 5720 5718 5717 5715 5713 5712 5711 5710 5709 5708 5706 5705 5704 5703
5745 5744 5743 5743 5741 5740 5739 5737 5736 5735 5732 5729 5730 5731 5729 5727 5720 5718 5724 5729 5729 5728 5728 5729 5727 5726 5724 5722 5720 5718 5716 5714 5713 5711 5710 5709 5707 5707 5705 5704 5703 5702 5700
5742 5742 5741 5740 5738 5737 5736 5735 5734 5732 5731 5728 5726 5726 5726 5726 5725 5718 5714 5718 5722 5725 5725 5725 5724 5723 5722 5720 5718 5716 5713 5712 5710 5709 5708 5706 5705 5704 5703 5702 5700 5699 5698
5739 5739 5738 5737 5736 5734 5733 5732 5731 5729 5728 5727 5726 5724 5722 5720 5719 5717 5713 5713 5714 5718 5722 5722 5722 5721 5720 5718 5716 5713 5711 5709 5708 5707 5705 5703 5702 5701 5700 5699 5698 5697 5696
5734 5735 5735 5733 5732 5731 5731 5730 5728 5726 5725 5724 5723 5722 5722 5721 5721 5718 5714 5711 5711 5714 5717 5718 5720 5719 5718 5715 5713 5711 5709 5707 5705 5704 5702 5701 5699 5698 5697 5696 5695 5694 5693
5733 5733 5732 5731 5730 5729 5728 5727 5725 5724 5723 5721 5721 5719 5718 5719 5719 5717 5713 5709 5705 5707 5710 5713 5717 5717 5715 5713 5711 5708 5706 5704 5703 5701 5699 5698 5696 5695 5694 5693 5692 5691 5690
5731 5730 5729 5728 5727 5726 5725 5724 5722 5721 5720 5718 5717 5716 5715 5715 5716 5715 5713 5710 5704 5699 5701 5707 5710 5713 5712 5710 5708 5706 5704 5702 5700 5699 5697 5695 5693 5692 5691 5690 5689 5688 5687
5727 5726 5725 5724 5724 5723 5722 5720 5719 5718 5716 5715 5714 5713 5712 5712 5712 5711 5710 5709 5707 5702 5699 5705 5707 5709 5709 5708 5705 5703 5702 5700 5698 5697 5695 5694 5691 5690 5688 5687 5686 5684 5683
5724 5723 5722 5720 5719 5719 5718 5716 5715 5714 5712 5711 5710 5709 5708 5708 5707 5706 5706 5705 5703 5701 5697 5700 5704 5705 5704 5703 5701 5700 5699 5698 5696 5695 5693 5691 5689 5687 5686 5684 5683 5681 5679
5720 5719 5718 5716 5715 5715 5713 5712 5710 5710 5708 5707 5706 5705 5704 5704 5702 5701 5700 5700 5699 5698 5695 5693 5696 5697 5698 5698 5698 5697 5697 5696 5694 5693 5691 5689 5687 5685 5683 5681 5679 5677 5675
5716 5714 5713 5711 5711 5710 5709 5708 5706 5705 5704 5704 5702 5700 5699 5698 5697 5696 5695 5694 5694 5694 5692 5690 5690 5692 5693 5693 5692 5692 5692 5691 5691 5690 5688 5686 5684 5682 5680 5678 5676 5674 5672
5711 5710 5708 5707 5706 5706 5705 5704 5703 5702 5701 5700 5699 5697 5696 5694 5692 5691 5690 5689 5689 5687 5686 5685 5685 5686 5686 5688 5686 5685 5684 5685 5685 5685 5684 5683 5681 5679 5676 5674 5672 5670 5668
5707 5706 5704 5702 5702 5701 5700 5699 5698 5697 5696 5695 5694 5693 5692 5690 5688 5687 5686 5684 5683 5681 5680 5679 5679 5679 5680 5679 5679 5679 5677 5678 5678 5679 5678 5678 5677 5674 5672 5670 5669 5667 5665
5701 5699 5697 5696 5695 5696 5694 5693 5692 5691 5691 5689 5689 5688 5687 5685 5683 5681 5680 5679 5677 5676 5674 5674 5674 5673 5674 5675 5675 5674 5672 5670 5669 5674 5672 5671 5672 5670 5670 5668 5667 5664 5662
5694 5692 5691 5690 5689 5688 5686 5685 5684 5684 5684 5684 5683 5682 5682 5681 5678 5676 5674 5673 5672 5672 5671 5671 5669 5670 5671 5672 5671 5669 5668 5666 5665 5668 5666 5664 5666 5665 5666 5666 5664 5662 5660
5687 5686 5685 5684 5682 5681 5679 5678 5677 5677 5678 5678 5677 5677 5675 5673 5672 5669 5669 5667 5666 5666 5667 5667 5667 5668 5669 5668 5667 5665 5664 5662 5663 5664 5663 5658 5659 5660 5662 5661 5660 5658 5657
5681 5680 5680 5679 5677 5674 5672 5670 5668 5670 5670 5671 5671 5670 5668 5666 5664 5662 5662 5660 5660 5660 5662 5663 5663 5664 5663 5662 5661 5658 5656 5654 5654 5656 5658 5655 5655 5654 5655 5655 5655 5654 5653
5675 5675 5674 5673 5672 5669 5665 5663 5661 5662 5662 5663 5663 5662 5661 5660 5658 5656 5655 5654 5653 5654 5655 5656 5656 5658 5658 5658 5656 5654 5651 5649 5648 5649 5653 5651 5650 5648 5647 5651 5651 5649 5647